ARIANE 5 R/B, 43634

Orbit data source: Space-Track

ARIANE 5 R/B, 43634 is space debris in HEO originally from a launch on Tue, 25 Sep 2018 UTC launched from the French Guiana (FRGUI). Debris objects in space refer to the collection of defunct objects orbiting the Earth. Examples of debris include non-operational satellites, rocket bodies, and fragments generated from explosions, collisions, or faulty payload assembly.

Loading next visibility...
Identifier
43634, 2018-074C
Orbit
HEO
Country
Flag of FRFR
Related business
Manufacturer
ArianeGroup
Mission
Spacecraft
Bus & Motor
ESC-A, Unknown motor
Mass
~5,000 kg wet, ~5,000 kg dry
Launch date (UTC)
2018-09-25 (7 years ago)
Launch vehicle
Unknown
Launch site
French Guiana (FRGUI)
Object type
Payload
Rocket body
Debris
Shape & HBR
Cyl + 1 Nozzle, 3.5 m
Radar Cross Section
41.627 m², Large (>1 m²)

Expand to show TLE details & history
Last TLE update: 1 day ago

TLE from 1 day ago
0 ARIANE 5 R/B
1 43634U 18074C   25286.20804774  .00002485  00000-0  12193-2 0  9992
2 43634   5.8113 149.3137 7146943 196.7309 114.5189  2.43659938 60304
Epoch: 2025-10-13T04:59Z
TLE epoch observation values (Epoch: 2025-10-13T04:59:35.324Z)
Latitude
0.00011°
Longitude
52.51212°
Altitude
29,806.782 km
Speed
2.224 km/s
True Right ascension
09h 57m 41s
True Declination
0° 00' 00"
Sunlit
Object was in daylight at epoch
Visualization orbit readout
Latitude
Unknown
Longitude
Unknown
Altitude
Unknown
Speed
Unknown
Apparent Right ascension
Unknown
Apparent Declination
Unknown
Sunlit
N/A
Visualization observer readout
Local Sidereal Time
04:43:02
Azimuth
Unknown
Elevation
Unknown
Doppler factor
Unknown
Orbital elements
Apogee altitude
33,631.739 km
Perigee altitude
279.053 km
Semi-major axis
23,333.533 km
Eccentricity
0.71469
Inclination
5.8113°
RAAN
149.3137°
Arg. of periapsis
196.7309°
True anomaly
163.35517°
Mean anomaly
114.5189°
Eccentric anomaly
140.54231°
Mean motion
0.60894 °/min
Orbital period
591.19 mins
BSTAR
0.0012193
Loading maneuver chart data...
Computing Atmospheric mass density...
Loading historical data...
Loading historical data...
Loading historical data...
Loading historical data...
Loading historical data...
Loading historical data...
Loading historical data...
Other satellites on launch #74 in the year 2018 (2018-09-25 UTC)

Documentation

Showing up to 5 results
|